Dewpoint
28 27 26 26 26 26 26 27 26 21 19 22 25 28 31 34 36 37 38 39 40 41 43 44 47 53 56 57 59 60 61 62 62 63 63 63 64 64
27 27 26 26 26 26 26 28 28 28 24 25 27 29 31 32 35 36 38 39 40 41 43 43 45 52 55 55 55 57 59 59 60 61 61 61 62 63
26 25 25 26 27 28 27 28 28 29 26 26 29 30 31 32 34 36 37 38 40 40 42 42 43 49 52 51 50 51 53 55 58 59 59 61 62 62
24 24 25 25 27 30 28 28 29 29 29 27 31 31 32 33 34 36 36 38 39 38 39 42 43 48 50 49 48 48 48 48 49 54 56 58 59 60
23 24 24 25 27 28 28 28 29 30 31 30 30 33 33 34 34 37 35 36 37 37 37 39 42 43 45 46 45 45 46 45 46 46 48 51 55 56
21 21 23 26 27 29 28 28 29 29 29 29 30 31 32 34 35 34 35 35 37 35 36 36 39 42 42 42 42 42 43 43 43 44 45 44 45 50
19 18 21 24 26 29 28 28 28 27 27 28 28 29 29 30 31 34 34 35 35 35 36 35 36 38 40 41 41 41 41 41 41 42 43 43 43 45
17 17 20 22 24 29 27 28 28 27 26 26 27 27 28 30 33 33 33 34 33 35 33 33 34 35 38 39 40 40 40 40 40 40 41 41 42 43
17 17 19 21 25 26 25 27 26 27 28 29 28 28 28 31 32 33 32 33 33 33 33 32 33 34 37 38 39 39 39 39 39 39 39 39 39 40
18 17 20 23 25 26 24 24 26 28 29 30 30 31 32 33 34 34 34 33 35 34 32 30 33 32 36 37 38 38 38 38 39 39 39 39 38 38
17 18 21 22 25 27 23 23 23 25 28 30 31 31 32 32 33 32 32 32 30 30 32 31 32 32 34 35 37 37 37 37 37 37 38 38 39 39
16 16 21 24 25 26 23 22 20 23 26 27 29 30 32 33 32 32 31 30 30 30 33 32 30 32 31 34 36 37 38 36 36 36 37 37 38 41
16 17 19 24 24 24 24 23 23 24 25 26 27 28 30 31 31 32 32 30 30 29 32 32 32 33 33 33 34 34 35 37 38 38 37 37 37 38
18 19 21 23 23 23 23 24 24 24 23 24 25 25 26 29 31 33 33 33 33 33 33 32 32 32 32 31 31 33 34 36 37 37 38 37 37 35
20 21 21 22 21 21 23 22 21 22 24 23 24 25 27 31 31 32 32 31 31 30 31 32 33 32 32 31 29 31 31 34 35 36 37 36 37 37
21 22 20 21 21 21 22 22 22 22 22 23 25 26 27 27 28 28 28 28 29 30 29 30 30 30 31 30 31 31 32 33 34 34 36 36 36 35
20 20 20 20 20 20 19 20 20 19 21 22 24 25 26 27 26 27 27 28 29 28 28 29 30 31 32 30 32 31 32 32 33 32 32 33 34 34
18 18 18 18 17 18 18 18 19 20 21 23 25 25 26 26 26 26 27 27 27 27 28 28 28 30 29 29 31 31 32 33 34 31 31 31 32 34
17 17 17 17 17 17 17 18 19 20 22 23 24 26 26 25 27 25 27 26 25 26 26 27 28 28 27 25 28 28 30 32 33 33 33 32 31 33
16 16 15 15 16 17 17 18 19 20 21 22 24 25 26 25 25 25 25 25 26 25 26 26 27 27 26 26 27 27 28 30 32 33 34 33 32 29
13 14 14 14 15 16 17 18 19 20 21 22 24 24 25 24 24 24 25 24 24 24 24 25 25 27 28 29 30 27 29 27 28 30 32 33 32 31
12 13 13 14 14 15 17 18 19 19 20 21 23 24 25 24 24 24 25 25 24 25 25 25 25 26 26 25 25 26 26 29 28 26 26 28 30 29
10 11 13 14 14 14 15 16 17 18 19 20 22 23 24 24 24 25 25 24 24 24 24 25 25 24 23 23 23 25 24 26 28 29 28 25 26 27
Lifted_Index
12 12 12 13 15 16 17 17 16 15 15 16 17 17 16 15 13 12 10 10 10 9 8 6 5 3 1 -1 -3 -3 -3 -2 -2 -2 -2 -2 -2 -2
11 11 11 12 14 15 16 16 16 16 16 16 17 17 16 15 13 12 10 9 10 10 8 6 5 3 1 -1 -2 -2 -2 -2 -2 -2 -2 -2 -2 -2
10 10 10 11 12 13 14 15 16 16 16 16 16 16 15 14 13 11 10 9 10 10 9 7 4 3 1 -0 -1 -1 -1 -1 -2 -2 -2 -2 -2 -2
11 10 10 11 12 12 13 14 15 16 16 16 16 15 14 13 12 11 10 9 9 10 9 7 5 3 1 1 -0 -0 -0 -0 -0 -1 -2 -3 -2 -2
11 11 11 11 12 13 13 14 14 15 15 15 15 15 14 13 12 11 9 9 9 10 10 9 6 4 2 1 1 1 0 1 1 0 -2 -3 -3 -3
12 12 12 12 13 13 14 14 14 15 15 15 15 14 13 12 11 10 9 8 9 11 11 11 9 6 3 2 2 1 1 2 2 2 -1 -3 -3 -3
12 13 13 13 13 14 14 15 15 15 15 15 14 14 13 12 11 10 8 8 9 11 12 12 12 9 5 2 2 1 1 2 3 2 -0 -2 -3 -3
12 13 13 14 14 14 15 15 16 15 15 15 14 13 12 12 11 10 9 8 8 11 12 12 12 10 6 3 2 2 2 2 3 2 1 -1 -2 -2
12 12 13 14 15 15 15 16 16 15 15 14 14 13 13 12 11 10 9 8 9 10 11 11 11 10 8 6 4 3 2 2 2 2 2 1 0 -0
12 13 13 14 15 15 15 15 15 15 15 14 13 13 13 13 12 11 10 9 9 11 12 12 12 11 10 8 6 4 3 3 3 3 3 2 2 2
13 13 13 14 14 15 15 14 14 14 14 14 13 13 13 13 12 11 11 10 9 11 13 14 12 10 10 10 9 7 6 5 4 4 4 3 3 3
12 13 13 14 14 14 14 14 14 14 14 13 13 13 13 13 12 12 11 10 9 10 13 13 11 9 8 9 10 9 8 8 7 6 6 5 4 4
11 12 13 13 13 14 14 14 14 14 14 13 13 12 12 12 12 12 12 12 11 12 13 13 12 10 9 8 9 9 9 9 9 8 8 8 7 6
11 11 12 12 13 13 14 14 14 14 14 14 13 13 13 13 13 13 13 13 13 14 14 14 13 12 10 8 8 9 10 10 11 10 10 10 10 10
11 11 12 12 12 13 13 14 14 14 14 14 14 14 14 14 13 13 13 14 14 14 15 15 15 13 11 9 9 10 10 12 13 12 12 12 13 13
11 11 11 11 11 12 13 13 14 14 15 15 15 15 14 14 14 14 14 13 13 14 15 16 16 15 14 13 13 13 13 14 15 16 15 14 14 14
10 10 9 10 10 11 12 13 14 14 15 15 15 15 15 15 15 14 14 14 13 14 15 16 17 16 16 16 16 16 16 17 18 18 17 16 16 16
9 9 9 9 9 10 11 12 13 14 15 15 16 16 16 16 15 15 15 14 14 14 15 17 17 16 16 17 17 18 18 18 19 19 18 18 18 18
9 9 9 9 9 10 11 11 12 13 14 15 16 16 16 16 16 16 16 15 15 16 16 17 17 16 15 16 17 19 19 18 18 18 18 19 19 20
9 9 9 10 10 10 11 11 12 13 14 15 15 16 16 16 16 16 16 16 16 16 17 17 17 17 16 16 17 19 19 19 19 19 19 19 20 20
11 10 10 11 11 11 11 11 11 12 12 13 14 15 15 16 16 16 16 16 16 16 16 17 18 18 18 18 18 18 20 20 20 20 19 19 19 19
12 12 12 12 11 11 11 11 11 11 12 12 13 14 14 15 15 15 16 16 16 16 17 18 18 19 19 18 18 18 19 20 20 20 20 20 19 19
13 12 12 12 12 12 12 11 11 11 11 12 12 13 14 14 15 15 15 16 16 16 17 18 18 19 19 18 18 18 19 20 20 20 21 21 21 20